DW7027 Weather Reports


Display with metric or nautical units.
time (UTC)temp
F
wind
direction
speed
MPH
gust
MPH
rain 1hr
in
rain 24hr
in
rain mn
in
humidity
%
barometer
mb
20260901110707 78 309 5.0 15.0 0.00 0.00 0.00 46 1024.3
20260901110206 78 354 6.0 13.0 0.00 0.00 0.00 45 1024.4
20260901105705 78 346 7.0 13.0 0.00 0.00 0.00 47 1024.4
20260901105205 77 336 6.0 13.0 0.00 0.00 0.00 46 1024.3
20260901104205 77 350 6.0 10.0 0.00 0.00 0.00 48 1024.6
20260901103205 77 293 6.0 10.0 0.00 0.00 0.00 49 1024.6
20260901102707 77 242 2.0 7.0 0.00 0.00 0.00 50 1024.6
20260901101705 76 340 3.0 6.0 0.00 0.00 0.00 53 1024.7
20260901100705 76 343 5.0 9.0 0.00 0.00 0.00 52 1024.7
20260901100205 76 348 4.0 9.0 0.00 0.00 0.00 51 1024.7
20260901095706 76 358 5.0 10.0 0.00 0.00 0.00 51 1024.8
20260901094706 76 9 5.0 10.0 0.00 0.00 0.00 52 1024.7
20260901092706 76 1 5.0 8.0 0.00 0.00 0.00 52 1024.9
20260901092205 76 342 5.0 9.0 0.00 0.00 0.00 51 1024.7
20260901091705 77 354 5.0 10.0 0.00 0.00 0.00 52 1024.9
20260901091205 76 7 4.0 9.0 0.00 0.00 0.00 55 1024.7
20260901090705 75 291 3.0 7.0 0.00 0.00 0.00 54 1024.6
20260901090206 75 309 5.0 9.0 0.00 0.00 0.00 54 1024.7
20260901085705 75 264 3.0 5.0 0.00 0.00 0.00 55 1024.9
20260901084207 75 335 5.0 10.0 0.00 0.00 0.00 54 1024.5
20260901083706 75 285 3.0 6.0 0.00 0.00 0.00 56 1024.9
20260901083207 75 308 5.0 14.0 0.00 0.00 0.00 56 1024.9
20260901082707 75 333 5.0 9.0 0.00 0.00 0.00 54 1024.9
20260901082205 74 222 4.0 9.0 0.00 0.00 0.00 56 1024.8
20260901081707 74 261 6.0 9.0 0.00 0.00 0.00 56 1025.1
20260901081206 74 230 4.0 7.0 0.00 0.00 0.00 56 1024.6
20260901080706 74 282 5.0 9.0 0.00 0.00 0.00 57 1024.8
20260901075706 73 356 5.0 9.0 0.00 0.00 0.00 58 1024.8
20260901074705 73 271 4.0 8.0 0.00 0.00 0.00 59 1024.7
20260901074207 72 273 4.0 9.0 0.00 0.00 0.00 59 1024.7
20260901073706 72 348 4.0 9.0 0.00 0.00 0.00 58 1024.6
20260901073205 72 333 5.0 9.0 0.00 0.00 0.00 58 1024.7
20260901072705 72 358 4.0 9.0 0.00 0.00 0.00 59 1024.8
20260901072205 71 330 3.0 8.0 0.00 0.00 0.00 60 1024.7
20260901071707 71 305 3.0 10.0 0.00 0.00 0.00 61 1024.6
20260901070705 71 334 5.0 9.0 0.00 0.00 0.00 62 1024.6
20260901065205 69 302 8.0 12.0 0.00 0.00 0.00 64 1024.3
20260901064705 69 274 4.0 10.0 0.00 0.00 0.00 65 1024.5
20260901063705 68 282 3.0 10.0 0.00 0.00 0.00 68 1024.4
20260901063205 68 284 6.0 12.0 0.00 0.00 0.00 68 1024.5
20260901062707 67 290 6.0 13.0 0.00 0.00 0.00 69 1024.4
20260901062205 67 302 3.0 9.0 0.00 0.00 0.00 70 1024.2
20260901061705 66 279 4.0 7.0 0.00 0.00 0.00 72 1024.2
20260901060205 64 283 3.0 6.0 0.00 0.00 0.00 74 1024.2
20260901055707 64 278 3.0 7.0 0.00 0.00 0.00 75 1024.5
20260901055205 63 245 4.0 7.0 0.00 0.00 0.00 76 1024.4
20260901053205 62 262 2.0 6.0 0.00 0.00 0.00 77 1024.0
20260901051706 61 285 3.0 6.0 0.00 0.00 0.00 78 1023.8
20260901050205 61 286 3.0 6.0 0.00 0.00 0.00 79 1023.8
20260901045705 60 283 3.0 8.0 0.00 0.00 0.00 79 1023.8
20260901044705 60 287 4.0 6.0 0.00 0.00 0.00 80 1023.6
20260901044205 60 284 4.0 7.0 0.00 0.00 0.00 80 1023.7
20260901043705 60 286 4.0 7.0 0.00 0.00 0.00 80 1023.5
20260901042705 60 281 3.0 6.0 0.00 0.00 0.00 80 1023.5
20260901042205 60 276 3.0 6.0 0.00 0.00 0.00 80 1023.4
20260901041705 60 278 3.0 6.0 0.00 0.00 0.00 80 1023.4
20260901041205 60 247 3.0 5.0 0.00 0.00 0.00 80 1023.1
20260901040705 61 265 3.0 7.0 0.00 0.00 0.00 80 1023.2
20260901040205 61 261 3.0 7.0 0.00 0.00 0.00 80 1023.1
20260901035707 61 277 4.0 7.0 0.00 0.00 0.00 80 1022.9
20260901034205 61 263 4.0 7.0 0.00 0.00 0.00 81 1022.9
20260901033705 61 268 4.0 7.0 0.00 0.00 0.00 81 1022.8
20260901032705 61 285 3.0 9.0 0.00 0.00 0.00 81 1022.7
20260901032207 61 296 5.0 12.0 0.00 0.00 0.00 82 1022.7
20260901031705 61 295 6.0 13.0 0.00 0.00 0.00 82 1022.7
20260901031205 61 295 6.0 12.0 0.00 0.00 0.00 83 1022.7
20260901030705 61 283 7.0 13.0 0.00 0.00 0.00 84 1022.6
20260901030205 60 288 6.0 12.0 0.00 0.00 0.00 85 1022.8
20260901025705 60 288 6.0 12.0 0.00 0.00 0.00 85 1022.8
20260901025205 59 291 7.0 10.0 0.00 0.00 0.00 85 1022.8
20260901024205 59 321 1.0 3.0 0.00 0.00 0.00 85 1023.0
20260901023704 59 302 2.0 6.0 0.00 0.00 0.00 85 1022.9
20260901023205 59 296 4.0 7.0 0.00 0.00 0.00 84 1022.8
20260901022705 59 279 2.0 5.0 0.00 0.00 0.00 84 1022.6
20260901022205 59 348 2.0 3.0 0.00 0.00 0.00 84 1022.6
20260901021705 60 9 2.0 3.0 0.00 0.00 0.00 84 1022.7
20260901021207 60 328 1.0 3.0 0.00 0.00 0.00 83 1022.7
20260901020204 60 11 1.0 2.0 0.00 0.00 0.00 83 1022.5
20260901015706 60 350 2.0 3.0 0.00 0.00 0.00 83 1022.4
20260901015205 60 12 0.0 2.0 0.00 0.00 0.00 82 1022.5
20260901014205 60 358 2.0 3.0 0.00 0.00 0.00 81 1022.5
20260901013705 60 263 1.0 2.0 0.00 0.00 0.00 81 1022.5
20260901013206 61 246 1.0 2.0 0.00 0.00 0.00 81 1022.2
20260901012705 61 307 1.0 2.0 0.00 0.00 0.00 80 1022.2
20260901012205 61 243 0.0 2.0 0.00 0.00 0.00 80 1022.3
20260901005705 62 137 1.0 2.0 0.00 0.00 0.00 77 1021.9
20260901005205 63 23 0.0 3.0 0.00 0.00 0.00 77 1022.0
20260901004705 63 59 1.0 2.0 0.00 0.00 0.00 76 1022.0
20260901004206 63 102 1.0 2.0 0.00 0.00 0.00 75 1022.0
20260901003705 64 46 1.0 2.0 0.00 0.00 0.00 75 1022.0
20260901003205 64 113 1.0 2.0 0.00 0.00 0.00 74 1022.1
20260901002705 64 72 1.0 2.0 0.00 0.00 0.00 73 1022.1
20260901002205 65 294 0.0 2.0 0.00 0.00 0.00 72 1021.9
20260901000706 65 244 2.0 5.0 0.00 0.00 0.00 71 1021.9
20260831235206 66 244 3.0 7.0 0.00 0.00 0.00 71 1021.9
20260831234205 66 244 3.0 5.0 0.00 0.00 0.00 71 1022.1
20260831233705 67 247 3.0 6.0 0.00 0.00 0.00 71 1022.2
20260831233205 67 241 3.0 9.0 0.00 0.00 0.00 71 1022.1
20260831232704 67 239 5.0 8.0 0.00 0.00 0.00 71 1022.2
20260831232205 67 234 3.0 7.0 0.00 0.00 0.00 71 1022.3
20260831231705 67 239 3.0 6.0 0.00 0.00 0.00 71 1022.3
20260831231205 67 240 3.0 7.0 0.00 0.00 0.00 72 1022.1
20260831230205 67 249 3.0 6.0 0.00 0.00 0.00 72 1022.3
20260831225704 67 244 3.0 6.0 0.00 0.00 0.00 72 1022.4
20260831225206 67 236 4.0 6.0 0.00 0.00 0.00 72 1022.3
20260831223705 67 225 3.0 7.0 0.00 0.00 0.00 72 1022.6
20260831223205 67 220 2.0 6.0 0.00 0.00 0.00 71 1022.6
20260831222205 67 234 4.0 7.0 0.00 0.00 0.00 71 1022.5
20260831221705 67 196 3.0 5.0 0.00 0.00 0.00 71 1022.6
20260831221205 68 205 2.0 3.0 0.00 0.00 0.00 71 1022.8
20260831220705 68 232 2.0 6.0 0.00 0.00 0.00 70 1022.6
20260831220205 68 219 3.0 6.0 0.00 0.00 0.00 69 1022.6
20260831215205 69 174 1.0 3.0 0.00 0.00 0.00 67 1022.6
20260831214705 69 227 2.0 6.0 0.00 0.00 0.00 66 1022.6
20260831214205 69 242 3.0 6.0 0.00 0.00 0.00 65 1022.7
20260831213706 69 235 3.0 3.0 0.00 0.00 0.00 64 1022.6
20260831213205 69 247 2.0 3.0 0.00 0.00 0.00 63 1022.3
20260831212705 69 272 2.0 5.0 0.00 0.00 0.00 63 1022.4
20260831212205 69 271 2.0 5.0 0.00 0.00 0.00 63 1022.4
20260831211707 69 280 3.0 6.0 0.00 0.00 0.00 63 1022.2
20260831211205 69 279 3.0 5.0 0.00 0.00 0.00 63 1022.5
20260831210705 69 274 2.0 5.0 0.00 0.00 0.00 63 1022.1
20260831210206 69 274 3.0 7.0 0.00 0.00 0.00 64 1022.2
20260831205705 68 282 5.0 7.0 0.00 0.00 0.00 65 1022.0
20260831204205 68 302 3.0 5.0 0.00 0.00 0.00 67 1021.3
20260831203705 68 302 2.0 3.0 0.00 0.00 0.00 67 1021.2
20260831203205 68 295 1.0 2.0 0.00 0.00 0.00 67 1021.1
20260831201705 68 302 3.0 5.0 0.00 0.00 0.00 67 1020.4
20260831200707 68 282 2.0 3.0 0.00 0.00 0.00 66 1020.3
20260831200205 68 278 1.0 2.0 0.00 0.00 0.00 66 1020.1
20260831195704 68 296 1.0 2.0 0.00 0.00 0.00 65 1020.0
20260831195205 68 297 2.0 3.0 0.00 0.00 0.00 65 1019.9
20260831194705 69 284 1.0 2.0 0.00 0.00 0.00 65 1019.9
20260831194205 69 280 1.0 2.0 0.00 0.00 0.00 64 1019.9
20260831193705 69 281 2.0 3.0 0.00 0.00 0.00 64 1019.8
20260831192705 69 282 2.0 2.0 0.00 0.00 0.00 65 1019.7
20260831192205 70 312 2.0 2.0 0.00 0.00 0.00 64 1019.7
20260831191204 70 338 1.0 2.0 0.00 0.00 0.00 63 1019.8
20260831185205 71 309 2.0 3.0 0.00 0.00 0.00 61 1019.3
20260831184705 71 338 2.0 2.0 0.00 0.00 0.00 61 1019.4
20260831184204 71 332 2.0 3.0 0.00 0.00 0.00 60 1019.3
20260831183204 72 283 1.0 2.0 0.00 0.00 0.00 58 1019.2
20260831182705 72 289 1.0 2.0 0.00 0.00 0.00 58 1019.2
20260831180705 74 313 1.0 2.0 0.00 0.00 0.00 52 1019.0
20260831180205 74 301 1.0 2.0 0.00 0.00 0.00 52 1019.0
20260831175705 75 274 1.0 2.0 0.00 0.00 0.00 52 1019.0
20260831175205 75 274 1.0 2.0 0.00 0.00 0.00 51 1018.8
20260831174705 76 275 1.0 2.0 0.00 0.00 0.00 50 1018.9
20260831174205 76 323 1.0 2.0 0.00 0.00 0.00 48 1018.6
20260831173707 77 310 1.0 2.0 0.00 0.00 0.00 47 1018.7
20260831173205 77 291 2.0 3.0 0.00 0.00 0.00 47 1018.7
20260831172205 78 283 2.0 5.0 0.00 0.00 0.00 45 1018.7
20260831171705 79 280 4.0 7.0 0.00 0.00 0.00 44 1018.6
20260831171205 79 277 4.0 6.0 0.00 0.00 0.00 44 1018.6
20260831170704 80 282 4.0 9.0 0.00 0.00 0.00 43 1018.7
20260831170205 80 281 5.0 10.0 0.00 0.00 0.00 42 1018.8
20260831165705 81 278 6.0 13.0 0.00 0.00 0.00 41 1018.7
20260831165205 81 279 7.0 13.0 0.00 0.00 0.00 42 1018.6
20260831164707 82 281 6.0 10.0 0.00 0.00 0.00 41 1018.7
20260831164205 82 284 6.0 13.0 0.00 0.00 0.00 41 1018.6
20260831163706 83 289 9.0 16.0 0.00 0.00 0.00 40 1018.7
20260831163204 83 280 7.0 12.0 0.00 0.00 0.00 41 1018.8
20260831162705 83 287 8.0 14.0 0.00 0.00 0.00 41 1018.8
20260831162206 83 281 9.0 15.0 0.00 0.00 0.00 42 1018.8
20260831161705 83 287 8.0 12.0 0.00 0.00 0.00 41 1018.7
20260831161205 83 268 5.0 9.0 0.00 0.00 0.00 42 1018.6
20260831160204 83 262 6.0 13.0 0.00 0.00 0.00 43 1018.5
20260831155705 83 269 6.0 13.0 0.00 0.00 0.00 41 1018.7
20260831155204 83 277 7.0 13.0 0.00 0.00 0.00 43 1018.7
20260831154704 83 270 7.0 12.0 0.00 0.00 0.00 44 1018.8
20260831154205 83 273 5.0 10.0 0.00 0.00 0.00 46 1018.8
20260831153705 83 268 5.0 10.0 0.00 0.00 0.00 45 1018.5
20260831153204 83 249 5.0 7.0 0.00 0.00 0.00 49 1018.9
20260831151705 83 259 4.0 7.0 0.00 0.00 0.00 49 1018.8
20260831150705 83 242 6.0 10.0 0.00 0.00 0.00 51 1019.0
20260831150204 82 259 4.0 8.0 0.00 0.00 0.00 51 1019.0
20260831145704 82 263 6.0 12.0 0.00 0.00 0.00 51 1019.2
20260831145205 81 239 6.0 12.0 0.00 0.00 0.00 53 1019.1
20260831144704 81 225 6.0 9.0 0.00 0.00 0.00 54 1019.1
20260831143705 80 207 6.0 8.0 0.00 0.00 0.00 55 1019.3
20260831142704 79 222 5.0 9.0 0.00 0.00 0.00 56 1019.5
20260831142204 79 275 5.0 10.0 0.00 0.00 0.00 56 1019.3
20260831141704 79 222 6.0 12.0 0.00 0.00 0.00 56 1019.3
20260831141205 79 239 5.0 10.0 0.00 0.00 0.00 57 1019.3
20260831140705 78 249 5.0 10.0 0.00 0.00 0.00 58 1019.5
20260831135705 78 252 5.0 10.0 0.00 0.00 0.00 58 1019.5
20260831135204 78 246 6.0 9.0 0.00 0.00 0.00 58 1019.6
20260831134705 78 238 4.0 7.0 0.00 0.00 0.00 58 1019.8
20260831134204 78 264 5.0 13.0 0.00 0.00 0.00 58 1019.8
20260831133204 78 273 3.0 9.0 0.00 0.00 0.00 58 1019.7
20260831132704 78 238 6.0 10.0 0.00 0.00 0.00 57 1019.8
20260831132205 78 255 6.0 12.0 0.00 0.00 0.00 57 1019.7
20260831131704 78 265 7.0 12.0 0.00 0.00 0.00 57 1019.8
20260831131204 79 233 7.0 12.0 0.00 0.00 0.00 56 1019.9
20260831130706 79 254 5.0 10.0 0.00 0.00 0.00 57 1019.7
20260831125705 80 238 7.0 13.0 0.00 0.00 0.00 54 1020.2
20260831125205 80 277 7.0 13.0 0.00 0.00 0.00 55 1020.1
20260831124204 80 270 9.0 14.0 0.00 0.00 0.00 55 1020.2
20260831122204 81 290 9.0 17.0 0.00 0.00 0.00 52 1020.1
20260831120704 83 292 9.0 18.0 0.00 0.00 0.00 51 1020.0
20260831120206 83 287 10.0 17.0 0.00 0.00 0.00 51 1019.9
20260831115704 82 292 12.0 17.0 0.00 0.00 0.00 53 1019.9
20260831115205 81 285 12.0 21.0 0.00 0.00 0.00 52 1019.8
20260831114704 81 283 9.0 16.0 0.00 0.00 0.00 52 1019.9
20260831114204 81 287 10.0 18.0 0.00 0.00 0.00 51 1019.7
20260831112704 82 267 6.0 13.0 0.00 0.00 0.00 50 1019.9
20260831112204 82 290 7.0 20.0 0.00 0.00 0.00 49 1019.7
20260831111205 83 287 7.0 13.0 0.00 0.00 0.00 50 1019.9